Regional Weather Roundup
Issued by NWS

Home | Current Version | Previous Version | Graphics & Text | Print | Product List | Glossary On
Versions: 1 2 3 4 5 6 7 8 9 10 11 12 13 14 15 16 17 18 19 20 21 22 23 24 25 26 27 28 29 30 31 32 33 34 35 36 37 38 39 40 41 42 43 44 45 46 47 48 49 50
000
ASUS45 KBOU 020207
RWRCO

WEATHER ROUNDUP FOR COLORADO
NATIONAL WEATHER SERVICE DENVER/BOULDER CO
800 PM MDT WED APR 01 2015

NOTE: "FAIR" INDICATES FEW OR NO CLOUDS BELOW 12000 FEET WITH NO
SIGNIFICANT WEATHER AND/OR OBSTRUCTIONS TO VISIBILITY.

COZ001>005-013-030-031-020300-
...NORTHWEST COLORADO...

CITY           SKY/WX    TMP DP  RH WIND       PRES   REMARKS
CRAIG          MOCLDY    45   8  22 SW3       29.91R
HAYDEN         MOCLDY    45   9  23 NW8       29.89R
MEEKER         CLOUDY    50  -4  10 NW8       29.90R
MOUNT WERNER   NOT AVBL
STEAMBOAT SPGS MOCLDY    45  11  25 NW15      29.88R
WALDEN         PTCLDY    34  14  44 NW6       29.91R WCI  29
$$

COZ006>008-011-020300-
...WEST CENTRAL VALLEYS...

CITY           SKY/WX    TMP DP  RH WIND       PRES   REMARKS
GRAND JUNCTION PTCLDY    56   3  11 W6        29.82S
MONTROSE       PTCLDY    57  11  16 NW9       29.88R
EAGLE          CLEAR     52  21  30 NW10      29.88R
RIFLE          PTCLDY    56   5  13 NW9       29.85R
DELTA          PTCLDY    62   4  10 NW8       29.85S
NUCLA          PTCLDY    55  18  22 W3        29.91S
$$

COZ017>023-064>068-020300-
...SOUTHWEST COLORADO...

CITY           SKY/WX    TMP DP  RH WIND       PRES   REMARKS
DURANGO        PTCLDY    56  10  16 NW12      29.90S
CORTEZ         CLEAR     59  10  14 W9        29.88S
PAGOSA SPRINGS PTCLDY    53   6  15 W6        29.95R
TELLURIDE      NOT AVBL
WOLF CREEK PAS MOCLDY    32   9  37 SW21G37   30.13R WCI  20
$$

COZ009-010-012-014-032>034-037-058>063-020300-
...CENTRAL COLORADO...

CITY           SKY/WX    TMP DP  RH WIND       PRES   REMARKS
ASPEN          PTCLDY    41  29  62 SW9       29.92R
BUENA VISTA    LGT RAIN  38  32  78 S8G21     30.01R
COPPER MTN     PTCLDY    32  14  47 W17G29    30.05S WCI  21
BERTHOUD PASS  LGT SNOW  21  14  73 W29G36    30.02R WCI   3
COTTONWOOD PAS CLOUDY    34  30  86 W39G62    29.98F WCI  18
GUNNISON       PTCLDY    43  28  56 E3        29.98F
KREMMLING      MOCLDY    43  18  36 CALM      29.90R
LEADVILLE      PTCLDY    32  19  58 NE3       29.98S
SALIDA         PTCLDY    50  23  34 W10G17    30.00R
SUNLIGHT       PTCLDY    34  12  40 CALM      30.04R
WILKERSON PASS PTCLDY    32  19  59 SW13G22   30.03S WCI  22
$$

COZ069>075-020300-
...SAN LUIS VALLEY/SANGRE DE CRISTO MOUNTAINS...

CITY           SKY/WX    TMP DP  RH WIND       PRES   REMARKS
ALAMOSA        PTCLDY    51  21  30 N8        29.93R
LA VETA PASS   PTCLDY    39  21  48 W8        30.01R
SAGUACHE       PTCLDY    43  28  56 NW14      29.94S
$$

COZ035-036-038>040-020300-
...NORTHERN COLORADO FRONT RANGE...

CITY           SKY/WX    TMP DP  RH WIND       PRES   REMARKS
DENVER INTL AP CLOUDY    50  37  61 NE9       29.78R
DMNS CITY PARK   N/A     54  33  43 E3        29.78R
AURORA         MOCLDY    49  38  66 E8        29.79F
FRONT RANGE AP MOCLDY    54  37  54 NE9       29.80R
ERIE MUNI ARPT CLOUDY    57  28  32 SW5       29.77S
BOULDER MUN AP CLOUDY    57  27  30 NW5       29.78R
CENTENNIAL     CLOUDY    50  35  56 S7        29.79F
BROOMFIELD     MOCLDY    55  30  38 E7        29.80S
FORT COLLINS   CLOUDY    55  30  38 E12       29.79S
LONGMONT       CLOUDY    60  25  26 W6        29.79R
$$

COZ041-046-047-076>085-087-088-020300-
...PIKES PEAK/PALMER DIVIDE AND SOUTHERN FOOTHILLS...

CITY           SKY/WX    TMP DP  RH WIND       PRES   REMARKS
COLO. SPRINGS  MOCLDY    54  28  36 N12G22    29.81R
A. F. ACADEMY  MOCLDY    54  22  28 NE10      29.82R
ELLICOTT       NOT AVBL
FALCON         MOCLDY    47  32  56 N7        29.86R
FORT CARSON    MOCLDY    57  23  27 N12G21    29.79R
LIMON          CLOUDY    50  39  66 N15       29.87R
MONUMENT HILL  CLOUDY    45  32  61 CALM      29.84S
TRINIDAD       PTCLDY    58  21  24 NW9       29.79R
$$

COZ042>045-048>051-090-091-020300-
...NORTHEAST COLORADO...

CITY           SKY/WX    TMP DP  RH WIND       PRES   REMARKS
GREELEY ARPT   CLOUDY    55  30  38 E6        29.79R
AKRON          LGT RAIN  47  42  83 N13       29.86R
BURLINGTON     CLOUDY    59  36  42 N22G31    29.68R
WRAY           CLOUDY    59  42  53 N25G36    29.76R
STERLING       CLOUDY    50  41  71 NE3       29.82S
HOLYOKE        LGT RAIN  54  43  66 N14G22    29.82S
FORT MORGAN    LGT RAIN  49  40  69 E17G25    29.82S
$$

COZ086-089-092>099-020300-
...SOUTHEAST COLORADO...

CITY           SKY/WX    TMP DP  RH WIND       PRES   REMARKS
PUEBLO         MOCLDY    65  24  21 NW22G30   29.73R
LA JUNTA       CLOUDY    70  26  19 NW32G40   29.68R
LAMAR          CLOUDY    70  25  18 W9        29.60R
SPRINGFIELD      N/A     68  20  16 W13G22    29.67R
$$


USA.gov is the U.S. government's official web portal to all federal, state and local government web resources and services.